User: anonymous   Login
Location: Croydon
(51.3762°N, 0.0982°W)
Time: 05:51:31
(UTC+01:00)
Language:

VELOX 1 - Orbit

View from above orbital plane
View from above orbital plane
View from above satellite
View from above satellite

Ground track
Ground track

The orbit data is extracted from the following two-line orbital elements,

1 40057U 14034E   19109.81589009  .00000321  00000-0  52504-4 0  9994
2 40057  98.2250 231.6448 0012430  69.8980 290.3560 14.77627211258921
Epoch (UTC): 19 April 2019 19:34:52
Eccentricity: 0.0012430
inclination: 98.2250°
perigee height: 628 km
apogee height: 645 km
right ascension of ascending node: 231.6448°
argument of perigee: 69.8980°
revolutions per day: 14.77627211
mean anomaly at epoch: 290.3560°
orbit number at epoch: 25892

The dashed part of the orbit path shows where the satellite is in the earth's shadow,  

DLR